Glendale Luke AFB, AZ

4:30 AM MST on May 25, 2018 (GMT -0700)
Luke Air Force Base

Weather History for KLUF - February, 2012

Change the Weather History Date:

Wednesday, February 8, 2012

  Actual Average Record
Temperature  
Mean Temperature 60 °F -  
Max Temperature 71 °F 70 °F 90 °F (1963)
Min Temperature 48 °F 40 °F 23 °F (1933)
Degree Days  
Heating Degree Days 6    
Growing Degree Days 10 (Base 50)    
Moisture  
Dew Point 34 °F    
Average Humidity 41    
Maximum Humidity 59    
Minimum Humidity 23    
Precipitation  
Precipitation 0.00 in - - ()
Sea Level Pressure  
Sea Level Pressure 30.04 in    
Wind  
Wind Speed 3 mph (NNW)    
Max Wind Speed 7 mph    
Max Gust Speed -    
Visibility 10 miles    
Events      
Averages and records for this station are not official NWS values.
T = Trace of Precipitation, MM = Missing Value Source: NWS Daily Summary

Daily Weather History Graph

Daily Weather History Graph

Search for Another Location

Airport or City:

Astronomy

Feb. 08, 2012 Rise Set
Actual Time 7:20 AM MST 6:07 PM MST
Civil Twilight 6:54 AM MST 6:33 PM MST
Nautical Twilight 6:25 AM MST 7:02 PM MST
Astronomical Twilight 5:56 AM MST 7:31 PM MST
Moon 7:23 PM MST (2/8) 7:31 AM MST (2/8)
Length of Visible Light 11h 38m
Length of Day
10h 46m
Full, 99% of the Moon is Illuminated
Feb 8
Full
Feb 14
Last Quarter
Feb 21
New
Feb 29
First Quarter
Mar 8
Full

Hourly Weather History & Observations

Time (MST) Temp. Dew Point Humidity Pressure Visibility Wind Dir Wind Speed Gust Speed Precip Events Conditions
12:55 AM 54.3 °F 37.0 °F 52% 29.94 in 10.0 mi Calm Calm - N/A   Mostly Cloudy
1:55 AM 54.1 °F 35.2 °F 49% 29.95 in 10.0 mi WSW 3.5 mph - N/A   Overcast
2:55 AM 51.4 °F 34.9 °F 53% 29.96 in 10.0 mi Calm Calm - N/A   Scattered Clouds
3:55 AM 49.8 °F 35.8 °F 59% 29.98 in 10.0 mi North 4.6 mph - N/A   Mostly Cloudy
4:55 AM 53.1 °F 30.0 °F 41% 29.99 in 10.0 mi NE 4.6 mph - N/A   Overcast
5:55 AM 50.5 °F 33.8 °F 53% 30.02 in 10.0 mi NW 5.8 mph - N/A   Mostly Cloudy
6:55 AM 48.6 °F 31.1 °F 51% 30.04 in 10.0 mi North 6.9 mph - N/A   Scattered Clouds
7:55 AM 50.2 °F 31.5 °F 49% 30.05 in 10.0 mi NNW 6.9 mph - N/A   Overcast
8:55 AM 53.8 °F 31.3 °F 42% 30.08 in 10.0 mi Calm Calm - N/A   Scattered Clouds
9:55 AM 56.8 °F 34.7 °F 43% 30.10 in 10.0 mi North 3.5 mph - N/A   Scattered Clouds
10:55 AM 61.2 °F 34.9 °F 37% 30.09 in 10.0 mi Calm Calm - N/A   Scattered Clouds
11:55 AM 66.9 °F 31.1 °F 26% 30.07 in 10.0 mi Calm Calm - N/A   Scattered Clouds
12:55 PM 70.0 °F 30.6 °F 23% 30.05 in 10.0 mi NNE 3.5 mph - N/A   Partly Cloudy
1:55 PM 70.7 °F 31.5 °F 23% 30.02 in 10.0 mi Calm Calm - N/A   Mostly Cloudy
2:55 PM 71.4 °F 31.1 °F 23% 30.03 in 10.0 mi WSW 5.8 mph - N/A   Mostly Cloudy
3:55 PM 71.2 °F 30.9 °F 23% 30.02 in 10.0 mi Calm Calm - N/A   Mostly Cloudy
4:55 PM 71.2 °F 31.3 °F 23% 30.01 in 10.0 mi Calm Calm - N/A   Mostly Cloudy
5:55 PM 70.9 °F 32.5 °F 24% 30.01 in 10.0 mi Calm Calm - N/A   Scattered Clouds
6:55 PM 64.8 °F 38.5 °F 38% 30.04 in 10.0 mi NW 4.6 mph - N/A   Clear
7:51 PM 59.0 °F 41.0 °F 51% 30.06 in 10.0 mi NNW 6.9 mph - N/A   Light Drizzle
7:55 PM 58.6 °F 40.3 °F 51% 30.07 in 10.0 mi NNW 6.9 mph - 0.00 in   Light Drizzle
8:55 PM 57.2 °F 38.5 °F 50% 30.09 in 10.0 mi Calm Calm - N/A   Clear
9:55 PM 55.6 °F 36.9 °F 49% 30.10 in 10.0 mi NNW 3.5 mph - N/A   Scattered Clouds
10:55 PM 56.8 °F 35.4 °F 45% 30.10 in 10.0 mi WNW 3.5 mph - N/A   Mostly Cloudy
11:55 PM 56.8 °F 34.3 °F 43% 30.09 in 10.0 mi Calm Calm - N/A   Scattered Clouds